Overview Statistics Trail Chart Weather Telemetry Raw packets
 

This is the latest recevied weather packets stored in our database for station/object K7DC. If no packets are shown the sender has not sent any weather packets the latest 10 day(s).

<< 13 14 15 16 17 18 19 >>
Time Temp. Humidity Pressure Rain* Wind** Luminosity Snow
1788545255 33.33° C 41% 1016.9 hPa 0 mm - 826 W/m² -
1788544950 33.33° C 42% 1016.9 hPa 0 mm - 818 W/m² -
1788544649 33.89° C 42% 1016.8 hPa 0 mm - 810 W/m² -
1788544348 34.44° C 40% 1017 hPa 0 mm - 800 W/m² -
1788544043 33.33° C 42% 1017.1 hPa 0 mm - 789 W/m² -
1788543739 33.33° C 44% 1017.1 hPa 0 mm - 780 W/m² -
1788543435 33.33° C 45% 1017.2 hPa 0 mm - 765 W/m² -
1788543134 34.44° C 43% 1017 hPa 0 mm - 756 W/m² -
1788542831 33.89° C 44% 1017.3 hPa 0 mm - 744 W/m² -
1788542530 33.89° C 44% 1017.2 hPa 0 mm - 743 W/m² -
1788542225 33.33° C 45% 1017.3 hPa 0 mm - 724 W/m² -
1788541920 32.78° C 46% 1017.6 hPa 0 mm - 709 W/m² -
1788541617 32.22° C 48% 1017.6 hPa 0 mm - 694 W/m² -
1788541312 31.67° C 48% 1017.7 hPa 0 mm - 684 W/m² -
1788541011 32.22° C 47% 1017.6 hPa 0 mm - 668 W/m² -
1788540710 32.22° C 47% 1017.3 hPa 0 mm - 655 W/m² -
1788540406 31.67° C 48% 1017.4 hPa 0 mm - 643 W/m² -
1788540100 31.67° C 49% 1017.2 hPa 0 mm - 625 W/m² -
1788539797 31.67° C 49% 1017.4 hPa 0 mm - 611 W/m² -
1788539492 31.67° C 49% 1017.3 hPa 0 mm - 596 W/m² -
1788539191 31.67° C 49% 1017.2 hPa 0 mm - 581 W/m² -
1788538892 31.11° C 50% 1017.3 hPa 0 mm - 567 W/m² -
1788538588 30.56° C 52% 1017.3 hPa 0 mm - 550 W/m² -
1788538288 30.56° C 51% 1017.1 hPa 0 mm - 533 W/m² -
1788537984 30.56° C 51% 1017.3 hPa 0 mm - 517 W/m² -

* Rain latest hour (hover to see other rain measurements)
** Current wind speed in m/s (hover to see current wind gust speed)